FW1208 Weather Reports


time (UTC)temp
C
wind
direction
speed
KPH
gust
KPH
rain 1hr
cm
rain 24hr
cm
rain mn
cm
humidity
%
barometer
mb
20260510104508 11 226 3.2 6.4 0.00 0.00 0.00 89 1013.4
20260510104007 11 226 3.2 6.4 0.00 0.00 0.00 89 1013.3
20260510103507 11 229 3.2 6.4 0.00 0.00 0.00 88 1013.3
20260510103006 11 231 3.2 6.4 0.00 0.00 0.00 88 1013.3
20260510102505 11 231 3.2 6.4 0.00 0.00 0.00 88 1013.2
20260510102004 11 231 3.2 8.0 0.00 0.00 0.00 87 1013.1
20260510101503 12 233 1.6 8.0 0.00 0.00 0.00 87 1013.0
20260510101003 12 231 3.2 8.0 0.00 0.00 0.00 88 1012.9
20260510100502 12 231 3.2 6.4 0.00 0.00 0.00 88 1012.9
20260510100002 12 247 1.6 4.8 0.00 0.00 0.00 88 1012.9
20260510095503 12 248 1.6 6.4 0.00 0.00 0.00 88 1012.8
20260510095004 12 248 1.6 6.4 0.00 0.00 0.00 89 1012.8
20260510094505 11 248 3.2 4.8 0.00 0.00 0.00 89 1012.8
20260510094103 11 248 3.2 4.8 0.00 0.00 0.00 88 1012.8
20260510093559 12 248 3.2 6.4 0.00 0.00 0.00 87 1012.6
20260510093059 12 248 0.0 6.4 0.00 0.00 0.00 86 1012.6
20260510092601 12 248 1.6 11.3 0.00 0.00 0.00 87 1012.6
20260510092100 12 248 0.0 11.3 0.00 0.00 0.00 87 1012.5
20260510091600 12 261 3.2 9.7 0.00 0.00 0.00 88 1012.5
20260510091057 12 244 1.6 6.4 0.00 0.00 0.00 89 1012.5
20260510090557 12 241 3.2 6.4 0.00 0.00 0.00 89 1012.5
20260510090056 12 243 3.2 6.4 0.00 0.00 0.00 89 1012.5
20260510085558 12 242 3.2 6.4 0.00 0.00 0.00 89 1012.4
20260510085057 12 242 1.6 6.4 0.00 0.00 0.00 89 1012.4
20260510084554 12 245 3.2 4.8 0.00 0.00 0.00 89 1012.4
20260510084053 12 245 0.0 6.4 0.00 0.00 0.00 88 1012.4
20260510083553 12 245 1.6 6.4 0.00 0.00 0.00 88 1012.4
20260510083051 12 245 1.6 6.4 0.00 0.00 0.00 88 1012.3
20260510082551 13 245 1.6 6.4 0.00 0.00 0.00 88 1012.3
20260510082050 13 240 3.2 8.0 0.00 0.00 0.00 88 1012.2
20260510081550 13 223 3.2 8.0 0.00 0.00 0.00 88 1012.1
20260510081050 13 242 3.2 9.7 0.00 0.00 0.00 88 1012.2
20260510080549 13 232 1.6 4.8 0.00 0.00 0.00 88 1012.2
20260510080058 13 232 1.6 8.0 0.00 0.00 0.00 88 1012.2
20260510075551 13 229 4.8 8.0 0.00 0.00 0.00 88 1012.1
20260510075048 13 223 3.2 8.0 0.00 0.00 0.00 89 1012.2
20260510074552 13 242 3.2 8.0 0.00 0.00 0.00 89 1012.1
20260510074048 13 225 1.6 8.0 0.00 0.00 0.00 90 1012.0
20260510073547 13 227 3.2 9.7 0.00 0.00 0.00 90 1012.0
20260510073106 13 215 3.2 9.7 0.00 0.00 0.00 90 1011.9
20260510072547 12 210 6.4 9.7 0.00 0.00 0.00 90 1012.0
20260510072049 12 206 6.4 11.3 0.00 0.00 0.00 90 1012.0
20260510071546 12 207 8.0 11.3 0.00 0.00 0.00 90 1012.0
20260510071044 12 220 3.2 6.4 0.00 0.00 0.00 90 1011.9
20260510070544 12 220 1.6 3.2 0.00 0.00 0.00 89 1012.0
20260510070045 13 220 1.6 4.8 0.00 0.00 0.00 89 1011.9
20260510065544 12 220 1.6 6.4 0.00 0.00 0.00 89 1011.8
20260510065043 12 220 4.8 6.4 0.00 0.00 0.00 88 1011.9
20260510064559 13 221 1.6 6.4 0.00 0.00 0.00 88 1011.7
20260510064040 13 221 1.6 8.0 0.00 0.00 0.00 88 1011.7
20260510063540 13 220 3.2 8.0 0.00 0.00 0.00 88 1011.7
20260510063040 13 226 1.6 8.0 0.00 0.00 0.00 88 1011.7
20260510062538 13 211 3.2 6.4 0.00 0.00 0.00 87 1011.7
20260510062038 13 211 4.8 6.4 0.00 0.00 0.00 87 1011.8
20260510061538 13 211 3.2 6.4 0.00 0.00 0.00 87 1011.7
20260510061042 13 211 3.2 9.7 0.00 0.00 0.00 87 1011.8
20260510060542 13 211 3.2 12.9 0.00 0.00 0.00 86 1011.7
20260510060038 13 184 8.0 12.9 0.00 0.00 0.00 85 1011.8
20260510055537 14 192 8.0 11.3 0.00 0.00 0.00 86 1011.8
20260510055039 14 189 1.6 6.4 0.00 0.00 0.00 85 1011.7
20260510054542 14 218 0.0 6.4 0.00 0.00 0.00 86 1011.5
20260510054035 13 196 0.0 4.8 0.00 0.00 0.00 86 1011.5
20260510053536 13 196 1.6 6.4 0.00 0.00 0.00 86 1011.6
20260510053042 13 196 3.2 8.0 0.00 0.00 0.00 85 1011.7
20260510052535 14 196 4.8 8.0 0.00 0.00 0.00 84 1011.7
20260510052031 14 227 1.6 6.4 0.00 0.00 0.00 83 1011.7
20260510051545 15 240 4.8 6.4 0.00 0.00 0.00 82 1011.7
20260510051031 15 241 1.6 6.4 0.00 0.00 0.00 81 1011.6
20260510050528 15 241 1.6 11.3 0.00 0.00 0.00 80 1011.6
20260510050035 15 241 1.6 11.3 0.00 0.00 0.00 80 1011.6
20260510045528 15 244 1.6 11.3 0.00 0.00 0.00 80 1011.7
20260510045029 15 255 4.8 11.3 0.00 0.00 0.00 81 1011.6
20260510044526 15 201 0.0 8.0 0.00 0.00 0.00 80 1011.6
20260510044026 15 201 3.2 8.0 0.00 0.00 0.00 80 1011.8
20260510043526 15 201 4.8 8.0 0.00 0.00 0.00 80 1011.7
20260510043024 15 198 4.8 8.0 0.00 0.00 0.00 80 1011.7
20260510042525 15 203 4.8 8.0 0.00 0.00 0.00 79 1011.7
20260510042021 16 203 3.2 8.0 0.00 0.00 0.00 78 1011.5
20260510041520 16 202 3.2 8.0 0.00 0.00 0.00 78 1011.6
20260510041020 16 202 3.2 8.0 0.00 0.00 0.00 78 1011.5
20260510040519 16 202 4.8 8.0 0.00 0.00 0.00 78 1011.4
20260510040018 16 197 4.8 11.3 0.00 0.00 0.00 78 1011.5
20260510035517 16 197 8.0 11.3 0.00 0.00 0.00 77 1011.3
20260510035022 16 194 8.0 12.9 0.00 0.00 0.00 77 1011.3
20260510034518 16 194 8.0 12.9 0.00 0.00 0.00 76 1011.2
20260510034019 16 189 9.7 14.5 0.00 0.00 0.00 76 1011.3
20260510033517 16 190 8.0 14.5 0.00 0.00 0.00 76 1011.3
20260510033019 16 194 9.7 12.9 0.00 0.00 0.00 76 1011.2
20260510032517 16 200 8.0 16.1 0.00 0.00 0.00 75 1011.2
20260510032017 16 195 11.3 16.1 0.00 0.00 0.00 75 1011.1
20260510031523 16 196 9.7 16.1 0.00 0.00 0.00 74 1011.1
20260510031017 16 192 11.3 16.1 0.00 0.00 0.00 74 1011.1
20260510030518 16 190 11.3 16.1 0.00 0.00 0.00 74 1011.1
20260510030016 16 193 9.7 16.1 0.00 0.00 0.00 74 1011.1
20260510025519 16 200 9.7 16.1 0.00 0.00 0.00 73 1011.0
20260510025022 16 203 9.7 14.5 0.00 0.00 0.00 73 1011.0
20260510024516 16 201 8.0 12.9 0.00 0.00 0.00 72 1011.0
20260510024018 16 200 8.0 11.3 0.00 0.00 0.00 72 1011.0
20260510023515 16 189 8.0 9.7 0.00 0.00 0.00 72 1010.9
20260510023014 17 184 6.4 11.3 0.00 0.00 0.00 71 1010.8
20260510022514 17 187 8.0 12.9 0.00 0.00 0.00 70 1010.6
20260510022014 17 187 8.0 12.9 0.00 0.00 0.00 70 1010.6
20260510021523 17 196 8.0 11.3 0.00 0.00 0.00 69 1010.6
20260510021013 17 209 6.4 12.9 0.00 0.00 0.00 69 1010.5
20260510020514 17 205 6.4 12.9 0.00 0.00 0.00 68 1010.4
20260510020017 17 196 8.0 11.3 0.00 0.00 0.00 67 1010.4
20260510015513 18 191 6.4 11.3 0.00 0.00 0.00 67 1010.3
20260510015013 18 175 4.8 11.3 0.00 0.00 0.00 67 1010.3
20260510014513 18 183 8.0 11.3 0.00 0.00 0.00 67 1010.2
20260510014013 18 189 6.4 11.3 0.00 0.00 0.00 66 1010.2
20260510013513 18 202 8.0 16.1 0.00 0.00 0.00 66 1010.2
20260510013012 18 192 9.7 16.1 0.00 0.00 0.00 66 1010.1
20260510012512 18 184 8.0 12.9 0.00 0.00 0.00 65 1010.0
20260510012011 18 185 8.0 12.9 0.00 0.00 0.00 65 1010.0
20260510011511 18 187 9.7 12.9 0.00 0.00 0.00 65 1009.9
20260510011011 18 181 6.4 11.3 0.00 0.00 0.00 64 1009.7
20260510010511 18 176 8.0 11.3 0.00 0.00 0.00 64 1009.8
20260510010011 18 180 4.8 8.0 0.00 0.00 0.00 64 1009.7
20260510005511 18 180 4.8 8.0 0.00 0.00 0.00 64 1009.7
20260510005015 18 180 4.8 8.0 0.00 0.00 0.00 63 1009.7
20260510004510 18 180 3.2 9.7 0.00 0.00 0.00 62 1009.7
20260510004010 19 180 3.2 8.0 0.00 0.00 0.00 62 1009.7
20260510003510 19 180 1.6 8.0 0.00 0.00 0.00 62 1009.5
20260510003012 19 180 3.2 8.0 0.00 0.00 0.00 61 1009.6
20260510002509 20 180 6.4 8.0 0.00 0.00 0.00 61 1009.4
20260510002009 20 178 4.8 8.0 0.00 0.00 0.00 60 1009.4
20260510001509 20 184 4.8 8.0 0.00 0.00 0.00 59 1009.3
20260510001009 20 186 3.2 8.0 0.00 0.00 0.00 58 1009.2
20260510000509 20 189 3.2 9.7 0.00 0.00 0.00 58 1009.2
20260510000009 20 190 6.4 9.7 0.00 0.00 0.00 58 1009.2
20260509235509 20 192 6.4 11.3 0.00 0.00 0.00 57 1009.1
20260509235010 21 185 6.4 11.3 0.00 0.00 0.00 57 1009.1
20260509234508 21 190 6.4 12.9 0.00 0.00 0.00 56 1009.0
20260509234009 21 186 6.4 12.9 0.00 0.00 0.00 56 1009.0
20260509233509 21 190 8.0 16.1 0.00 0.00 0.00 56 1009.0
20260509233007 21 202 6.4 16.1 0.00 0.00 0.00 55 1008.9
20260509232507 21 177 9.7 16.1 0.00 0.00 0.00 55 1009.0
20260509232007 21 187 9.7 16.1 0.00 0.00 0.00 55 1008.9
20260509231507 21 196 12.9 17.7 0.00 0.00 0.00 54 1009.0
20260509231006 22 191 11.3 17.7 0.00 0.00 0.00 53 1008.9
20260509230506 22 161 8.0 16.1 0.00 0.00 0.00 53 1009.0
20260509230006 22 183 9.7 16.1 0.00 0.00 0.00 53 1008.9
20260509225506 22 199 6.4 20.9 0.00 0.00 0.00 53 1009.0
20260509225006 22 186 14.5 20.9 0.00 0.00 0.00 53 1009.0
20260509224506 22 209 11.3 19.3 0.00 0.00 0.00 52 1009.0
20260509224007 22 187 11.3 20.9 0.00 0.00 0.00 52 1008.9
20260509223507 22 211 12.9 20.9 0.00 0.00 0.00 52 1009.0
20260509223005 22 189 12.9 22.5 0.00 0.00 0.00 52 1009.0
20260509222505 22 188 12.9 24.1 0.00 0.00 0.00 51 1009.0
20260509222007 22 197 14.5 22.5 0.00 0.00 0.00 51 1009.0
20260509221505 22 207 11.3 29.0 0.00 0.00 0.00 51 1009.0
20260509221005 22 190 12.9 29.0 0.00 0.00 0.00 51 1009.0
20260509220505 22 196 12.9 25.7 0.00 0.00 0.00 51 1009.1
20260509220004 22 163 17.7 25.7 0.00 0.00 0.00 51 1008.9
20260509215506 22 192 12.9 22.5 0.00 0.00 0.00 50 1008.9
20260509215004 22 186 14.5 22.5 0.00 0.00 0.00 50 1009.0
20260509214504 23 199 9.7 17.7 0.00 0.00 0.00 50 1009.0
20260509214003 23 200 8.0 19.3 0.00 0.00 0.00 50 1008.9
20260509213502 23 236 6.4 24.1 0.00 0.00 0.00 49 1008.9
20260509213002 23 247 11.3 24.1 0.00 0.00 0.00 50 1008.9
20260509212503 22 206 9.7 24.1 0.00 0.00 0.00 52 1009.0
20260509212001 22 196 9.7 20.9 0.00 0.00 0.00 51 1009.0
20260509211501 22 223 9.7 20.9 0.00 0.00 0.00 52 1008.9
20260509211102 22 194 11.3 20.9 0.00 0.00 0.00 53 1008.9
20260509210601 22 212 11.3 20.9 0.00 0.00 0.00 52 1008.8
20260509210101 22 220 11.3 16.1 0.00 0.00 0.00 51 1008.8
20260509205601 23 200 6.4 16.1 0.00 0.00 0.00 51 1008.9
20260509205059 22 221 6.4 25.7 0.00 0.00 0.00 52 1008.7
20260509204603 22 207 11.3 25.7 0.00 0.00 0.00 52 1008.8
20260509204059 22 190 12.9 22.5 0.00 0.00 0.00 52 1008.7
20260509203601 22 234 11.3 20.9 0.00 0.00 0.00 51 1008.6
20260509203058 22 237 8.0 17.7 0.00 0.00 0.00 53 1008.6
20260509202558 21 187 6.4 17.7 0.00 0.00 0.00 55 1008.6
20260509202101 22 238 12.9 22.5 0.00 0.00 0.00 54 1008.7
20260509201557 22 240 9.7 22.5 0.00 0.00 0.00 54 1008.7
20260509201102 22 182 12.9 27.4 0.00 0.00 0.00 54 1008.7
20260509200556 22 242 11.3 27.4 0.00 0.00 0.00 53 1008.7
20260509200109 22 211 16.1 27.4 0.00 0.00 0.00 51 1008.9
20260509195556 22 317 4.8 16.1 0.00 0.00 0.00 55 1009.0
20260509195055 22 196 4.8 14.5 0.00 0.00 0.00 54 1008.9
20260509194556 22 175 6.4 17.7 0.00 0.00 0.00 54 1009.0
20260509194053 22 236 11.3 17.7 0.00 0.00 0.00 54 1009.1
20260509193551 22 200 9.7 17.7 0.00 0.00 0.00 55 1009.2
20260509193050 22 227 3.2 17.7 0.00 0.00 0.00 54 1009.3
20260509192549 22 249 9.7 17.7 0.00 0.00 0.00 56 1009.4
20260509192053 22 223 6.4 12.9 0.00 0.00 0.00 56 1009.6
20260509191547 21 237 6.4 11.3 0.00 0.00 0.00 57 1009.5
20260509191046 21 258 4.8 19.3 0.00 0.00 0.00 59 1009.7
20260509190545 21 269 8.0 19.3 0.00 0.00 0.00 59 1009.8
20260509190045 21 219 4.8 14.5 0.00 0.00 0.00 60 1009.9
20260509185544 21 259 4.8 14.5 0.00 0.00 0.00 60 1010.0
20260509185043 21 214 4.8 11.3 0.00 0.00 0.00 61 1010.0
20260509184547 21 246 3.2 16.1 0.00 0.00 0.00 60 1010.2
20260509184043 21 233 3.2 19.3 0.00 0.00 0.00 59 1010.1
20260509183543 21 317 8.0 16.1 0.00 0.00 0.00 58 1010.0
20260509183058 21 195 4.8 14.5 0.00 0.00 0.00 59 1010.1
20260509182541 21 198 6.4 19.3 0.00 0.00 0.00 59 1010.3
20260509182040 21 250 8.0 19.3 0.00 0.00 0.00 58 1010.3
20260509181540 21 231 8.0 22.5 0.00 0.00 0.00 58 1010.3
20260509181039 20 248 6.4 24.1 0.00 0.00 0.00 61 1010.4
20260509180541 20 259 6.4 24.1 0.00 0.00 0.00 60 1010.4
20260509180038 20 198 9.7 25.7 0.00 0.00 0.00 60 1010.4
20260509175538 20 198 14.5 25.7 0.00 0.00 0.00 60 1010.5
20260509175038 20 216 8.0 22.5 0.00 0.00 0.00 61 1010.5
20260509174547 20 219 11.3 30.6 0.00 0.00 0.00 60 1010.5
20260509174038 20 224 11.3 33.8 0.00 0.00 0.00 60 1010.5
20260509173537 20 210 14.5 33.8 0.00 0.00 0.00 60 1010.5
20260509173042 21 207 24.1 32.2 0.00 0.00 0.00 59 1010.5
20260509172535 21 211 12.9 25.7 0.00 0.00 0.00 61 1010.6
20260509172036 20 217 14.5 40.2 0.00 0.00 0.00 63 1010.8
20260509171542 20 184 12.9 40.2 0.00 0.00 0.00 63 1010.9
20260509171034 20 196 17.7 33.8 0.00 0.00 0.00 62 1010.7
20260509170534 20 200 11.3 24.1 0.00 0.00 0.00 64 1010.6
20260509170034 20 237 11.3 24.1 0.00 0.00 0.00 65 1010.8
20260509165632 19 187 17.7 30.6 0.00 0.00 0.00 66 1010.8
20260509165031 19 190 16.1 38.6 0.00 0.00 0.00 65 1011.0
20260509164534 20 194 14.5 35.4 0.00 0.00 0.00 65 1010.9
20260509164030 20 177 19.3 35.4 0.00 0.00 0.00 63 1011.0
20260509163533 19 188 14.5 33.8 0.00 0.00 0.00 68 1011.0
20260509163042 18 180 19.3 33.8 0.00 0.00 0.00 67 1011.1
20260509162531 18 184 17.7 32.2 0.00 0.00 0.00 66 1011.2
20260509162028 20 188 14.5 24.1 0.00 0.00 0.00 65 1011.3
20260509161537 18 184 12.9 30.6 0.00 0.00 0.00 66 1011.2
20260509161026 18 240 9.7 30.6 0.00 0.00 0.00 66 1011.2
20260509160525 18 201 16.1 24.1 0.00 0.00 0.00 66 1011.2
20260509160026 18 242 8.0 17.7 0.00 0.00 0.00 68 1011.2
20260509155522 18 203 9.7 22.5 0.00 0.00 0.00 68 1011.4
20260509155022 18 180 11.3 25.7 0.00 0.00 0.00 68 1011.5
20260509154521 17 215 16.1 32.2 0.00 0.00 0.00 68 1011.6
20260509154020 17 175 8.0 38.6 0.00 0.00 0.00 69 1011.6
20260509153520 17 184 22.5 38.6 0.00 0.00 0.00 68 1011.7
20260509153033 17 186 17.7 32.2 0.00 0.00 0.00 68 1011.7
20260509152519 17 200 19.3 32.2 0.00 0.00 0.00 68 1011.7
20260509152019 17 183 19.3 25.7 0.00 0.00 0.00 68 1011.8
20260509151519 17 174 12.9 24.1 0.00 0.00 0.00 69 1011.9
20260509151021 17 223 16.1 24.1 0.00 0.00 0.00 69 1012.0
20260509150521 17 190 16.1 29.0 0.00 0.00 0.00 68 1012.0
20260509150027 17 219 14.5 38.6 0.00 0.00 0.00 68 1012.1
20260509145520 17 210 19.3 38.6 0.00 0.00 0.00 69 1011.9
20260509145016 17 173 20.9 35.4 0.00 0.00 0.00 69 1012.0
20260509144514 17 211 17.7 29.0 0.00 0.00 0.00 69 1012.1
20260509144014 17 182 12.9 24.1 0.00 0.00 0.00 71 1012.1
20260509143512 16 197 14.5 24.1 0.00 0.00 0.00 71 1012.2
20260509143010 16 188 12.9 25.7 0.00 0.00 0.00 72 1012.4
20260509142510 15 171 9.7 25.7 0.00 0.00 0.00 71 1012.4
20260509142008 15 158 14.5 19.3 0.00 0.00 0.00 72 1012.5
20260509141507 15 197 11.3 22.5 0.00 0.00 0.00 73 1012.7
20260509141007 15 167 12.9 22.5 0.00 0.00 0.00 73 1012.8
20260509140507 15 181 14.5 20.9 0.00 0.00 0.00 73 1012.7
20260509140005 15 194 12.9 20.9 0.00 0.00 0.00 73 1012.8
20260509135503 14 198 11.3 22.5 0.00 0.00 0.00 74 1012.8
20260509135004 14 201 12.9 22.5 0.00 0.00 0.00 74 1012.9
20260509134501 14 173 9.7 24.1 0.00 0.00 0.00 75 1012.9
20260509134002 14 194 11.3 24.1 0.00 0.00 0.00 75 1012.8
20260509133600 14 178 8.0 20.9 0.00 0.00 0.00 75 1012.8
20260509133059 13 209 12.9 20.9 0.00 0.00 0.00 75 1012.9
20260509132557 13 191 11.3 20.9 0.00 0.00 0.00 75 1012.9
20260509132058 13 211 12.9 19.3 0.00 0.00 0.00 75 1013.0
20260509131559 13 208 12.9 19.3 0.00 0.00 0.00 75 1013.0
20260509131055 13 213 9.7 19.3 0.00 0.00 0.00 75 1013.0
20260509130554 13 192 14.5 19.3 0.00 0.00 0.00 75 1013.1
20260509130055 13 221 11.3 16.1 0.00 0.00 0.00 77 1013.1
20260509125552 13 224 9.7 16.1 0.00 0.00 0.00 77 1013.0
20260509125050 12 205 9.7 16.1 0.00 0.00 0.00 77 1012.9
20260509124552 12 200 9.7 16.1 0.00 0.00 0.00 78 1013.0
20260509124048 12 196 9.7 19.3 0.00 0.00 0.00 78 1013.0
20260509123548 12 197 12.9 20.9 0.00 0.00 0.00 79 1013.0
20260509123104 12 188 11.3 24.1 0.00 0.00 0.00 79 1013.0
20260509122546 11 202 14.5 22.5 0.00 0.00 0.00 79 1012.9
20260509122045 11 209 12.9 25.7 0.00 0.00 0.00 79 1013.0
20260509121544 11 180 12.9 25.7 0.00 0.00 0.00 80 1013.1
20260509121048 11 186 12.9 24.1 0.00 0.00 0.00 81 1013.0
20260509120543 11 182 14.5 24.1 0.00 0.00 0.00 81 1013.1
20260509120041 10 188 12.9 19.3 0.00 0.00 0.00 81 1013.0
20260509115540 10 187 12.9 22.5 0.00 0.00 0.00 81 1013.1
20260509115040 10 203 17.7 22.5 0.00 0.00 0.00 82 1013.1
20260509114540 10 196 14.5 24.1 0.00 0.00 0.00 82 1012.9
20260509114039 10 197 12.9 24.1 0.00 0.00 0.00 82 1012.9
20260509113542 10 166 14.5 24.1 0.00 0.00 0.00 82 1013.0
20260509113038 10 194 14.5 22.5 0.00 0.00 0.00 82 1013.1
20260509112536 10 192 12.9 20.9 0.00 0.00 0.00 82 1013.0
20260509112036 9 194 11.3 22.5 0.00 0.00 0.00 82 1013.0
20260509111536 9 182 14.5 22.5 0.00 0.00 0.00 82 1012.9
20260509111035 9 186 11.3 24.1 0.00 0.00 0.00 81 1012.9
20260509110532 9 186 12.9 19.3 0.00 0.00 0.00 81 1012.9
20260509110032 9 177 11.3 20.9 0.00 0.00 0.00 81 1012.9
20260509105531 8 189 12.9 20.9 0.00 0.00 0.00 81 1012.9
20260509105029 8 190 12.9 17.7 0.00 0.00 0.00 81 1012.8